SCP
0 0 0 0 0 0 0 0 0 0 0 0 0 0 0 0 0 0 0 0 0 0 0 -0 -0 -0 -0 0 0 0 0 0 0 0 0 0 0 0 0 0 0 0 0
-0 -0 0 0 0 0 0 0 0 0 0 0 0 0 0 0 0 0 0 0 0 0 0 0 -0 -0 0 0 -0 0 0 0 0 0 0 0 0 0 0 0 0 0 0
-0 -0 0 0 0 0 0 0 0 0 0 0 0 0 0 0 0 0 0 0 0 0 0 -0 -0 0 -0 0 0 0 0 0 0 0 0 0 0 0 0 0 0 0 0
-0 -0 0 0 0 0 0 0 0 0 -0 -0 0 0 0 -0 0 0 0 0 0 0 0 -0 -0 0 0 -0 0 0 0 0 0 0 0 0 0 0 0 0 0 0 0
-0 -0 0 0 0 0 0 0 0 0 0 0 0 0 0 -0 0 0 0 0 0 0 -0 -0 -0 -0 0 0 0 0 0 0 0 0 0 0 0 0 0 0 0 0 0
-0 -0 0 0 0 0 0 0 0 0 0 0 0 0 0 0 0 -0 -0 0 -0 0 0 0 -0 -0 0 -0 -0 0 0 0 0 0 0 0 0 0 0 0 0 0 0
-0 -0 0 0 0 0 0 0 0 0 0 0 0 0 0 0 -0 -0 0 0 0 0 -0 0 0 0 -0 0 0 0 0 0 0 0 0 0 0 0 0 0 0 0 0
-0 -0 -0 -0 -0 -0 -0 -0 0 0 0 0 0 0 0 0 0 -0 -0 -0 -0 0 -0 -0 -0 0 0 -0 0 0 0 0 0 0 0 0 0 0 0 0 0 0 0
-0 -0 -0 -0 -0 -0 -0 -0 -0 0 0 0 0 0 0 0 0 -0 -0 -0 -0 0 -0 -0 0 0 -0 0 0 -0 0 0 0 0 0 0 0 0 0 0 0 0 0
-0 -0 -0 -0 -0 -0 -0 -0 0 0 0 0 0 0 0 0 0 -0 -0 -0 -0 0 0 0 -0 0 0 0 0 0 0 0 0 0 0 0 0 0 0 0 0 0 0
0 -0 -0 -0 -0 -0 -0 -0 -0 0 0 0 0 0 0 0 0 0 -0 -0 0 0 0 0 -0 -0 -0 0 0 0 0 0 0 0 0 0 0 0 0 0 0 0 0
0 -0 -0 -0 -0 -0 -0 0 0 -0 0 0 0 0 0 0 0 -0 -0 -0 -0 0 0 -0 0 0 0 0 0 0 0 0 0 0 0 0 0 0 0 0 0 0 0
-0 -0 -0 -0 -0 -0 -0 -0 -0 -0 0 0 0 0 0 0 0 -0 -0 -0 0 0 0 0 0 0 0 -0 0 0 0 0 0 0 0 0 0 0 0 0 0 0 0
0 -0 -0 -0 -0 -0 -0 -0 -0 -0 0 0 0 0 0 0 0 0 -0 -0 -0 0 -0 0 0 0 0 -0 0 0 0 0 0 0 0 0 0 0 0 0 0 0 0
0 0 0 -0 -0 -0 -0 0 -0 0 0 0 0 0 0 0 -0 0 0 0 0 0 0 0 0 0 0 0 0 0 0 0 0 0 0 0 0 0 -0 0 0 0 0
0 0 0 0 0 0 0 0 -0 0 0 0 0 0 0 0 -0 -0 0 -0 -0 -0 0 0 0 0 0 0 0 0 0 0 -0 -0 -0 0 0 -0 -0 0 0 0 -0
0 0 -0 0 0 0 0 -0 -0 -0 0 0 0 0 0 0 0 -0 -0 -0 0 0 0 0 0 0 0 0 0 0 0 -0 0 0 -0 0 -0 -0 0 0 0 0 -0
-0 0 -0 0 0 0 0 0 0 0 0 0 0 0 0 0 0 0 0 0 -0 0 0 0 0 0 0 0 0 0 0 0 0 0 0 -0 -0 -0 -0 -0 -0 -0 -0
0 0 0 0 0 0 0 0 0 0 0 0 0 0 0 0 0 0 0 0 0 0 0 0 0 0 0 0 0 0 0 0 0 0 -0 -0 -0 -0 -0 -0 -0 -0 -0
0 0 0 0 0 0 0 0 0 0 0 0 0 0 0 0 0 0 0 0 0 0 0 0 0 0 0 0 -0 0 0 0 0 0 -0 -0 -0 -0 -0 0 0 0 -0
0 0 0 0 0 0 0 0 0 0 0 0 0 0 0 0 0 0 0 0 0 0 0 0 0 0 0 0 0 0 0 -0 -0 -0 -0 -0 0 0 0 0 0 0 -0
0 0 0 0 0 0 0 0 0 0 0 0 0 0 0 0 0 0 0 0 0 0 0 0 0 0 0 0 -0 -0 0 0 -0 -0 -0 0 0 0 0 0 0 -0 -0
0 0 0 0 0 0 0 0 0 0 0 0 0 0 0 0 0 0 0 0 0 0 0 0 0 0 0 -0 -0 -0 -0 -0 -0 -0 -0 -0 -0 0 0 0 0 0 0
0 0 0 0 0 0 0 0 0 0 0 0 0 0 0 0 0 0 0 0 0 0 0 0 0 0 0 0 0 0 0 0 0 0 0 0 0 0 0 0 0 0 0
0 0 0 0 0 0 0 0 0 0 0 0 0 0 0 0 0 0 0 0 0 0 0 0 0 0 0 0 0 0 0 0 0 0 0 0 0 0 0 0 0 0 0
0 0 0 0 0 0 0 0 0 0 0 0 0 0 0 0 0 0 0 0 0 0 0 0 0 0 0 0 -0 -0 -0 0 0 0 0 0 0 0 0 0 0 0 0
Wind_Speed_500mb
44 43 44 42 35 30 29 27 22 19 17 21 22 22 21 20 18 17 15 15 17 18 20 16 15 18 22 22 26 26 23 20 21 25 20 19 20 25 31 32 33 39 41
47 46 43 38 33 31 27 22 20 20 22 22 21 20 19 17 17 14 14 16 16 16 20 21 15 13 21 23 24 26 31 33 30 39 29 28 27 33 34 36 40 41 44
50 43 37 33 29 26 24 23 23 24 21 21 20 20 17 14 10 9 13 13 15 15 22 24 23 18 22 25 23 18 31 33 30 43 40 40 36 35 34 42 48 50 49
44 38 34 32 30 27 23 23 26 23 22 23 21 17 11 7 8 9 9 10 11 14 16 16 21 23 26 27 25 32 36 38 34 46 51 47 43 42 43 53 66 65 77
41 38 37 33 28 23 21 27 28 28 26 21 16 11 5 6 8 8 7 8 10 13 15 19 17 26 29 32 34 38 41 37 45 56 56 56 54 58 53 61 68 77 73
41 40 37 29 22 19 24 33 30 28 22 17 13 3 7 3 4 7 7 7 11 18 8 19 16 22 29 32 33 35 40 38 55 56 61 57 60 54 59 58 62 71 64
41 39 32 25 18 22 30 35 32 25 19 16 9 5 3 2 3 8 6 5 5 9 9 18 15 19 29 37 42 38 35 25 32 53 62 54 54 55 67 67 71 69 75
39 34 28 22 21 26 28 34 30 21 18 17 5 3 2 7 9 9 7 4 8 12 12 20 24 26 30 41 44 44 38 35 32 45 47 41 41 55 52 69 75 73 68
32 29 24 23 24 26 31 33 26 22 20 13 5 6 8 9 10 9 7 9 12 12 13 20 27 34 35 35 46 49 44 40 34 43 41 44 46 58 66 76 76 73 70
29 25 24 23 19 21 31 29 23 23 18 12 6 12 11 12 12 10 9 7 10 12 17 20 22 26 40 36 46 51 51 47 41 40 44 52 42 49 66 63 65 60 56
27 27 25 23 18 19 28 27 24 27 21 13 11 16 11 10 12 15 11 9 10 13 19 22 25 23 31 43 40 41 51 50 44 44 49 54 54 55 55 58 52 42 39
30 28 26 23 19 19 24 27 23 24 21 17 16 18 12 11 12 17 13 12 11 15 20 25 30 32 36 32 43 44 44 46 49 46 50 57 49 58 59 55 41 38 32
32 29 28 23 20 19 20 21 22 23 20 20 19 19 14 11 14 13 10 8 13 15 21 31 35 33 34 32 38 39 51 49 47 49 54 54 55 67 60 52 41 33 36
36 30 28 22 23 20 20 17 14 19 22 23 23 19 16 14 16 12 9 8 15 19 36 38 35 35 37 39 41 44 49 47 50 52 63 64 68 67 54 43 40 41 32
37 30 26 22 22 20 21 18 14 14 14 18 21 17 13 16 15 11 9 13 21 31 40 42 38 40 42 45 48 47 48 47 51 62 65 63 61 57 48 45 42 47 38
41 33 28 23 22 22 21 23 22 21 19 18 15 16 15 16 18 16 12 19 25 37 40 42 38 40 44 43 42 46 47 53 61 57 54 55 57 55 46 47 42 43 41
43 35 30 27 22 23 24 27 25 23 22 18 14 17 16 21 23 21 17 26 28 35 35 41 35 35 43 46 46 49 53 47 52 44 42 41 42 39 48 45 41 38 33
42 34 28 29 27 23 24 24 22 18 17 16 14 12 16 21 28 25 22 26 32 34 33 36 37 39 38 41 46 44 39 47 46 40 39 40 41 42 44 35 35 35 32
45 37 29 29 30 24 21 23 23 20 16 13 15 14 19 27 30 26 21 23 28 31 35 31 34 34 39 33 35 39 40 39 38 40 38 40 44 43 40 34 32 35 35
43 37 28 27 31 30 24 24 24 24 17 10 15 13 20 29 34 34 31 27 25 22 24 28 33 35 40 42 40 39 39 46 47 43 39 42 43 44 39 38 36 35 41
40 39 35 29 28 33 31 26 26 26 21 15 15 13 13 17 25 25 25 27 26 25 25 24 24 26 27 38 45 47 49 46 49 50 43 46 50 49 47 41 40 41 41
45 39 36 34 31 30 32 30 24 24 24 23 20 17 16 14 11 13 17 20 22 24 24 24 24 24 26 29 31 35 40 43 45 47 51 49 50 55 53 50 50 49 48
46 45 43 38 35 33 31 31 30 24 24 23 22 21 19 17 16 13 11 11 13 17 21 24 26 28 29 30 32 34 39 43 45 49 55 56 56 55 54 53 52 51 51
36 36 34 36 33 30 28 29 30 30 23 22 23 21 19 18 16 15 16 16 17 18 19 20 23 26 29 33 35 37 39 40 43 45 47 51 53 56 60 56 56 58 58
26 29 28 29 27 22 18 18 15 16 26 23 18 20 16 21 22 22 23 25 26 27 30 32 34 34 36 38 41 43 46 47 48 49 51 54 59 60 58 58 61 64 68
20 28 35 32 26 20 18 19 19 16 14 14 16 17 17 18 19 21 22 24 25 26 27 28 31 31 33 38 43 47 51 55 55 56 61 66 66 67 64 67 72 71 70
Wind_Direction_500mb
157 155 153 151 156 162 170 173 181 194 201 203 190 182 185 184 186 190 197 209 216 224 231 232 228 229 222 208 201 212 202 183 184 191 175 163 170 166 155 167 167 160 166
155 155 156 158 162 167 175 182 180 177 174 171 173 174 179 184 193 200 218 229 227 224 219 220 210 218 210 200 191 209 204 192 173 167 168 150 145 151 158 155 156 156 156
151 153 155 159 162 166 169 166 167 168 164 161 160 157 157 172 189 217 225 222 221 232 228 222 215 217 202 195 192 202 176 175 170 167 156 146 141 154 152 159 158 155 171
152 153 154 153 155 158 155 165 168 164 160 153 152 152 154 184 215 218 210 223 224 239 231 202 203 208 198 192 188 180 164 161 168 167 151 148 142 148 155 161 154 153 136
152 149 149 152 158 163 166 168 163 157 153 153 151 151 198 260 227 205 215 224 234 237 222 210 215 211 205 200 193 175 165 171 165 160 156 151 151 153 158 152 146 147 148
150 151 156 160 164 173 172 168 162 164 166 167 155 177 291 226 194 178 193 229 247 246 226 190 206 207 200 193 190 187 186 178 167 167 166 163 165 170 164 163 161 154 143
157 161 165 165 166 165 165 169 167 167 170 170 176 287 259 229 205 184 182 229 236 175 181 184 175 157 173 181 180 184 191 205 201 178 173 174 171 171 172 165 163 159 155
162 168 167 169 163 160 163 169 169 170 174 174 184 250 142 117 124 136 152 171 147 146 148 168 162 154 147 150 159 169 178 182 184 175 185 178 163 169 177 172 161 159 157
170 173 172 166 161 164 167 169 169 176 175 172 175 154 128 125 129 136 132 140 152 162 154 161 176 169 166 162 157 159 160 168 177 180 175 167 158 166 165 165 161 157 157
177 176 172 157 153 165 181 179 178 178 179 177 170 152 129 122 122 128 119 107 130 133 140 145 174 171 171 168 167 162 162 167 168 173 173 167 158 167 166 169 165 165 161
183 184 167 145 146 159 173 178 183 186 182 185 169 157 138 127 116 115 111 90 125 146 148 150 152 156 164 172 178 171 159 158 161 165 171 172 170 173 175 174 169 178 169
180 178 166 153 158 160 171 183 187 193 187 186 175 168 152 135 129 124 117 106 120 144 147 133 133 143 154 164 177 169 164 160 162 170 174 175 173 166 167 173 178 183 185
182 174 163 159 163 166 173 177 182 191 191 184 182 179 171 156 148 130 133 123 134 143 149 128 130 131 137 147 163 172 164 168 171 169 169 172 168 168 172 178 184 189 187
180 171 167 165 168 169 176 176 182 192 187 191 190 189 188 176 166 144 145 152 149 145 140 127 131 132 134 138 146 158 171 167 165 164 166 167 169 176 180 184 186 180 175
181 176 170 170 177 178 178 166 152 148 165 179 194 197 200 192 175 151 140 156 157 151 143 139 141 143 142 145 158 163 166 169 170 170 167 167 169 174 182 185 189 188 192
182 180 178 176 183 192 179 160 143 132 133 143 160 172 191 192 174 155 143 149 154 157 152 149 153 157 157 154 157 164 166 165 163 161 163 168 174 182 186 189 192 196 202
184 182 184 190 189 193 183 172 157 145 138 136 141 166 171 181 169 158 152 151 155 167 165 157 162 161 166 166 162 157 163 162 166 171 172 175 181 183 190 193 199 203 209
183 184 194 201 201 195 186 177 169 163 156 155 151 168 171 169 166 163 159 154 158 169 169 168 169 174 173 172 169 169 174 178 181 187 190 190 189 190 193 200 206 210 214
186 191 202 207 205 198 187 180 173 167 157 162 172 172 166 164 167 166 161 166 158 171 180 182 186 182 187 180 181 186 184 186 191 195 196 197 199 200 206 209 213 218 221
193 196 200 206 210 201 196 186 180 177 172 160 166 164 169 174 179 177 173 173 171 166 169 182 189 191 195 202 198 193 195 199 200 200 202 206 208 211 216 222 225 229 240
200 203 207 204 208 208 202 195 192 190 184 174 169 156 139 169 187 190 185 187 188 187 183 181 185 192 198 209 211 210 210 210 210 214 214 216 216 222 228 230 234 239 244
205 205 210 213 209 210 211 207 198 196 193 186 183 178 175 173 182 199 208 207 203 203 207 209 210 209 206 206 210 217 224 226 226 225 226 225 227 232 237 242 244 245 246
210 215 220 221 220 221 221 215 213 205 199 198 203 205 203 201 205 210 209 210 215 221 226 228 227 226 226 227 228 229 229 229 229 230 233 235 236 239 241 242 243 245 248
206 212 217 221 224 223 222 224 224 217 209 205 212 214 213 217 223 233 243 245 243 240 240 240 240 242 244 246 246 245 245 244 244 247 246 246 244 246 248 247 249 251 253
199 206 213 213 215 209 211 208 215 220 223 222 223 228 237 246 254 260 263 265 265 263 258 253 253 252 252 252 254 255 255 253 252 253 254 253 251 250 248 252 253 255 258
200 206 199 191 196 192 183 181 185 181 175 200 224 237 246 256 259 260 263 266 270 274 277 279 281 280 276 274 271 267 266 265 262 258 259 259 258 257 254 255 258 258 261
Wind_Speed_850mb
44 43 44 42 35 30 29 27 22 19 17 21 22 22 21 20 18 17 15 15 17 18 20 16 15 18 22 22 26 26 23 20 21 25 20 19 20 25 31 32 33 39 41
47 46 43 38 33 31 27 22 20 20 22 22 21 20 19 17 17 14 14 16 16 16 20 21 15 13 21 23 24 26 31 33 30 39 29 28 27 33 34 36 40 41 44
50 43 37 33 29 26 24 23 23 24 21 21 20 20 17 14 10 9 13 13 15 15 22 24 23 18 22 25 23 18 31 33 30 43 40 40 36 35 34 42 48 50 49
44 38 34 32 30 27 23 23 26 23 22 23 21 17 11 7 8 9 9 10 11 14 16 16 21 23 26 27 25 32 36 38 34 46 51 47 43 42 43 53 66 65 77
41 38 37 33 28 23 21 27 28 28 26 21 16 11 5 6 8 8 7 8 10 13 15 19 17 26 29 32 34 38 41 37 45 56 56 56 54 58 53 61 68 77 73
41 40 37 29 22 19 24 33 30 28 22 17 13 3 7 3 4 7 7 7 11 18 8 19 16 22 29 32 33 35 40 38 55 56 61 57 60 54 59 58 62 71 64
41 39 32 25 18 22 30 35 32 25 19 16 9 5 3 2 3 8 6 5 5 9 9 18 15 19 29 37 42 38 35 25 32 53 62 54 54 55 67 67 71 69 75
39 34 28 22 21 26 28 34 30 21 18 17 5 3 2 7 9 9 7 4 8 12 12 20 24 26 30 41 44 44 38 35 32 45 47 41 41 55 52 69 75 73 68
32 29 24 23 24 26 31 33 26 22 20 13 5 6 8 9 10 9 7 9 12 12 13 20 27 34 35 35 46 49 44 40 34 43 41 44 46 58 66 76 76 73 70
29 25 24 23 19 21 31 29 23 23 18 12 6 12 11 12 12 10 9 7 10 12 17 20 22 26 40 36 46 51 51 47 41 40 44 52 42 49 66 63 65 60 56
27 27 25 23 18 19 28 27 24 27 21 13 11 16 11 10 12 15 11 9 10 13 19 22 25 23 31 43 40 41 51 50 44 44 49 54 54 55 55 58 52 42 39
30 28 26 23 19 19 24 27 23 24 21 17 16 18 12 11 12 17 13 12 11 15 20 25 30 32 36 32 43 44 44 46 49 46 50 57 49 58 59 55 41 38 32
32 29 28 23 20 19 20 21 22 23 20 20 19 19 14 11 14 13 10 8 13 15 21 31 35 33 34 32 38 39 51 49 47 49 54 54 55 67 60 52 41 33 36
36 30 28 22 23 20 20 17 14 19 22 23 23 19 16 14 16 12 9 8 15 19 36 38 35 35 37 39 41 44 49 47 50 52 63 64 68 67 54 43 40 41 32
37 30 26 22 22 20 21 18 14 14 14 18 21 17 13 16 15 11 9 13 21 31 40 42 38 40 42 45 48 47 48 47 51 62 65 63 61 57 48 45 42 47 38
41 33 28 23 22 22 21 23 22 21 19 18 15 16 15 16 18 16 12 19 25 37 40 42 38 40 44 43 42 46 47 53 61 57 54 55 57 55 46 47 42 43 41
43 35 30 27 22 23 24 27 25 23 22 18 14 17 16 21 23 21 17 26 28 35 35 41 35 35 43 46 46 49 53 47 52 44 42 41 42 39 48 45 41 38 33
42 34 28 29 27 23 24 24 22 18 17 16 14 12 16 21 28 25 22 26 32 34 33 36 37 39 38 41 46 44 39 47 46 40 39 40 41 42 44 35 35 35 32
45 37 29 29 30 24 21 23 23 20 16 13 15 14 19 27 30 26 21 23 28 31 35 31 34 34 39 33 35 39 40 39 38 40 38 40 44 43 40 34 32 35 35
43 37 28 27 31 30 24 24 24 24 17 10 15 13 20 29 34 34 31 27 25 22 24 28 33 35 40 42 40 39 39 46 47 43 39 42 43 44 39 38 36 35 41
40 39 35 29 28 33 31 26 26 26 21 15 15 13 13 17 25 25 25 27 26 25 25 24 24 26 27 38 45 47 49 46 49 50 43 46 50 49 47 41 40 41 41
45 39 36 34 31 30 32 30 24 24 24 23 20 17 16 14 11 13 17 20 22 24 24 24 24 24 26 29 31 35 40 43 45 47 51 49 50 55 53 50 50 49 48
46 45 43 38 35 33 31 31 30 24 24 23 22 21 19 17 16 13 11 11 13 17 21 24 26 28 29 30 32 34 39 43 45 49 55 56 56 55 54 53 52 51 51
36 36 34 36 33 30 28 29 30 30 23 22 23 21 19 18 16 15 16 16 17 18 19 20 23 26 29 33 35 37 39 40 43 45 47 51 53 56 60 56 56 58 58
26 29 28 29 27 22 18 18 15 16 26 23 18 20 16 21 22 22 23 25 26 27 30 32 34 34 36 38 41 43 46 47 48 49 51 54 59 60 58 58 61 64 68
20 28 35 32 26 20 18 19 19 16 14 14 16 17 17 18 19 21 22 24 25 26 27 28 31 31 33 38 43 47 51 55 55 56 61 66 66 67 64 67 72 71 70
Wind_Direction_850mb
157 155 153 151 156 162 170 173 181 194 201 203 190 182 185 184 186 190 197 209 216 224 231 232 228 229 222 208 201 212 202 183 184 191 175 163 170 166 155 167 167 160 166
155 155 156 158 162 167 175 182 180 177 174 171 173 174 179 184 193 200 218 229 227 224 219 220 210 218 210 200 191 209 204 192 173 167 168 150 145 151 158 155 156 156 156
151 153 155 159 162 166 169 166 167 168 164 161 160 157 157 172 189 217 225 222 221 232 228 222 215 217 202 195 192 202 176 175 170 167 156 146 141 154 152 159 158 155 171
152 153 154 153 155 158 155 165 168 164 160 153 152 152 154 184 215 218 210 223 224 239 231 202 203 208 198 192 188 180 164 161 168 167 151 148 142 148 155 161 154 153 136
152 149 149 152 158 163 166 168 163 157 153 153 151 151 198 260 227 205 215 224 234 237 222 210 215 211 205 200 193 175 165 171 165 160 156 151 151 153 158 152 146 147 148
150 151 156 160 164 173 172 168 162 164 166 167 155 177 291 226 194 178 193 229 247 246 226 190 206 207 200 193 190 187 186 178 167 167 166 163 165 170 164 163 161 154 143
157 161 165 165 166 165 165 169 167 167 170 170 176 287 259 229 205 184 182 229 236 175 181 184 175 157 173 181 180 184 191 205 201 178 173 174 171 171 172 165 163 159 155
162 168 167 169 163 160 163 169 169 170 174 174 184 250 142 117 124 136 152 171 147 146 148 168 162 154 147 150 159 169 178 182 184 175 185 178 163 169 177 172 161 159 157
170 173 172 166 161 164 167 169 169 176 175 172 175 154 128 125 129 136 132 140 152 162 154 161 176 169 166 162 157 159 160 168 177 180 175 167 158 166 165 165 161 157 157
177 176 172 157 153 165 181 179 178 178 179 177 170 152 129 122 122 128 119 107 130 133 140 145 174 171 171 168 167 162 162 167 168 173 173 167 158 167 166 169 165 165 161
183 184 167 145 146 159 173 178 183 186 182 185 169 157 138 127 116 115 111 90 125 146 148 150 152 156 164 172 178 171 159 158 161 165 171 172 170 173 175 174 169 178 169
180 178 166 153 158 160 171 183 187 193 187 186 175 168 152 135 129 124 117 106 120 144 147 133 133 143 154 164 177 169 164 160 162 170 174 175 173 166 167 173 178 183 185
182 174 163 159 163 166 173 177 182 191 191 184 182 179 171 156 148 130 133 123 134 143 149 128 130 131 137 147 163 172 164 168 171 169 169 172 168 168 172 178 184 189 187
180 171 167 165 168 169 176 176 182 192 187 191 190 189 188 176 166 144 145 152 149 145 140 127 131 132 134 138 146 158 171 167 165 164 166 167 169 176 180 184 186 180 175
181 176 170 170 177 178 178 166 152 148 165 179 194 197 200 192 175 151 140 156 157 151 143 139 141 143 142 145 158 163 166 169 170 170 167 167 169 174 182 185 189 188 192
182 180 178 176 183 192 179 160 143 132 133 143 160 172 191 192 174 155 143 149 154 157 152 149 153 157 157 154 157 164 166 165 163 161 163 168 174 182 186 189 192 196 202
184 182 184 190 189 193 183 172 157 145 138 136 141 166 171 181 169 158 152 151 155 167 165 157 162 161 166 166 162 157 163 162 166 171 172 175 181 183 190 193 199 203 209
183 184 194 201 201 195 186 177 169 163 156 155 151 168 171 169 166 163 159 154 158 169 169 168 169 174 173 172 169 169 174 178 181 187 190 190 189 190 193 200 206 210 214
186 191 202 207 205 198 187 180 173 167 157 162 172 172 166 164 167 166 161 166 158 171 180 182 186 182 187 180 181 186 184 186 191 195 196 197 199 200 206 209 213 218 221
193 196 200 206 210 201 196 186 180 177 172 160 166 164 169 174 179 177 173 173 171 166 169 182 189 191 195 202 198 193 195 199 200 200 202 206 208 211 216 222 225 229 240
200 203 207 204 208 208 202 195 192 190 184 174 169 156 139 169 187 190 185 187 188 187 183 181 185 192 198 209 211 210 210 210 210 214 214 216 216 222 228 230 234 239 244
205 205 210 213 209 210 211 207 198 196 193 186 183 178 175 173 182 199 208 207 203 203 207 209 210 209 206 206 210 217 224 226 226 225 226 225 227 232 237 242 244 245 246
210 215 220 221 220 221 221 215 213 205 199 198 203 205 203 201 205 210 209 210 215 221 226 228 227 226 226 227 228 229 229 229 229 230 233 235 236 239 241 242 243 245 248
206 212 217 221 224 223 222 224 224 217 209 205 212 214 213 217 223 233 243 245 243 240 240 240 240 242 244 246 246 245 245 244 244 247 246 246 244 246 248 247 249 251 253
199 206 213 213 215 209 211 208 215 220 223 222 223 228 237 246 254 260 263 265 265 263 258 253 253 252 252 252 254 255 255 253 252 253 254 253 251 250 248 252 253 255 258
200 206 199 191 196 192 183 181 185 181 175 200 224 237 246 256 259 260 263 266 270 274 277 279 281 280 276 274 271 267 266 265 262 258 259 259 258 257 254 255 258 258 261